EW6237 Weather Reports


time (UTC)temp
C
wind
direction
speed
KPH
gust
KPH
rain 1hr
cm
rain 24hr
cm
rain mn
cm
humidity
%
barometer
mb
20260509013054 16 202 0.0 0.0 0.00 0.00 0.00 51 1009.3
20260509011550 17 202 0.0 1.6 0.00 0.00 0.00 51 1009.4
20260509010054 17 202 0.0 1.6 0.00 0.00 0.00 50 1009.4
20260509004549 17 201 0.0 1.6 0.00 0.00 0.00 49 1009.2
20260509003050 18 202 0.0 1.6 0.00 0.00 0.00 48 1009.2
20260509001547 18 202 0.0 1.6 0.00 0.00 0.00 47 1009.2
20260509000047 18 202 0.0 3.2 0.00 0.00 0.00 46 1009.3
20260508234548 18 202 0.0 3.2 0.00 0.00 0.00 46 1009.3
20260508233046 19 202 0.0 4.8 0.00 0.00 0.00 44 1009.2
20260508231547 19 202 0.0 4.8 0.00 0.00 0.00 44 1009.4
20260508230056 19 202 1.6 4.8 0.00 0.00 0.00 43 1009.3
20260508224546 20 202 1.6 8.0 0.00 0.00 0.00 44 1009.3
20260508223043 20 202 0.0 4.8 0.00 0.00 0.00 43 1009.0
20260508221547 20 202 0.0 4.8 0.00 0.00 0.00 43 1009.1
20260508220041 20 202 1.6 8.0 0.00 0.00 0.00 42 1009.1
20260508214539 20 201 1.6 6.4 0.00 0.00 0.00 42 1009.3
20260508213038 20 202 0.0 6.4 0.00 0.00 0.00 43 1009.3
20260508211537 20 202 0.0 11.3 0.00 0.00 0.00 42 1009.4
20260508210035 20 202 1.6 8.0 0.00 0.00 0.00 41 1009.8
20260508204534 21 202 3.2 4.8 0.00 0.00 0.00 43 1009.9
20260508203030 21 202 3.2 8.0 0.00 0.00 0.00 42 1010.2
20260508201531 21 202 1.6 9.7 0.00 0.00 0.00 42 1010.3
20260508200036 21 202 3.2 8.0 0.00 0.00 0.00 40 1010.8
20260508194526 21 201 3.2 6.4 0.00 0.00 0.00 39 1011.0
20260508193025 21 201 1.6 8.0 0.00 0.00 0.00 40 1011.0
20260508191526 21 202 1.6 9.7 0.00 0.00 0.00 42 1010.9
20260508190022 22 202 3.2 6.4 0.00 0.00 0.00 38 1011.0
20260508184523 22 202 1.6 9.7 0.00 0.00 0.00 40 1011.3
20260508183017 21 202 3.2 6.4 0.00 0.00 0.00 40 1011.5
20260508181516 21 202 1.6 8.0 0.00 0.00 0.00 39 1011.8
20260508180011 20 202 1.6 8.0 0.00 0.00 0.00 41 1012.2
20260508174510 20 202 1.6 6.4 0.00 0.00 0.00 40 1012.4
20260508173005 20 201 3.2 8.0 0.00 0.00 0.00 44 1012.6
20260508171503 20 201 1.6 8.0 0.00 0.00 0.00 41 1013.0
20260508164558 20 202 1.6 9.7 0.00 0.00 0.00 45 1013.7
20260508163054 20 202 0.0 6.4 0.00 0.00 0.00 48 1014.0
20260508161552 19 202 0.0 6.4 0.00 0.00 0.00 51 1014.1
20260508160054 18 201 1.6 6.4 0.00 0.00 0.00 47 1014.3
20260508154550 18 202 1.6 6.4 0.00 0.00 0.00 48 1014.6
20260508153047 18 202 1.6 6.4 0.00 0.00 0.00 48 1014.8
20260508151544 17 202 3.2 6.4 0.00 0.00 0.00 50 1014.8
20260508150043 17 201 1.6 9.7 0.00 0.00 0.00 49 1015.0
20260508144539 16 202 1.6 6.4 0.00 0.00 0.00 51 1015.2
20260508143036 17 202 1.6 6.4 0.00 0.00 0.00 50 1015.1
20260508141533 16 202 1.6 9.7 0.00 0.00 0.00 51 1015.1
20260508140031 16 202 0.0 6.4 0.00 0.00 0.00 51 1015.2
20260508134527 16 202 1.6 6.4 0.00 0.00 0.00 52 1015.4
20260508133028 15 201 1.6 4.8 0.00 0.00 0.00 51 1015.3
20260508131521 15 202 0.0 3.2 0.00 0.00 0.00 54 1015.3
20260508130017 14 202 0.0 1.6 0.00 0.00 0.00 55 1015.3
20260508124514 13 202 0.0 1.6 0.00 0.00 0.00 58 1015.2
20260508123009 12 202 0.0 3.2 0.00 0.00 0.00 58 1015.2
20260508121505 12 202 0.0 1.6 0.00 0.00 0.00 59 1015.2
20260508120002 12 202 0.0 1.6 0.00 0.00 0.00 62 1015.1
20260508114558 11 202 0.0 1.6 0.00 0.00 0.00 63 1015.0
20260508113053 9 202 0.0 0.0 0.00 0.00 0.00 69 1014.9
20260508111548 7 202 0.0 1.6 0.00 0.00 0.00 74 1014.8
20260508110049 6 201 0.0 0.0 0.00 0.00 0.00 75 1014.8
20260508104615 6 201 0.0 0.0 0.00 0.00 0.00 75 1014.7
20260508103048 6 201 0.0 0.0 0.00 0.00 0.00 75 1014.6
20260508101549 6 201 0.0 0.0 0.00 0.00 0.00 75 1014.7
20260508100047 6 202 0.0 0.0 0.00 0.00 0.00 76 1014.6
20260508094547 6 202 0.0 0.0 0.00 0.00 0.00 75 1014.7
20260508093044 6 202 0.0 0.0 0.00 0.00 0.00 75 1014.6
20260508091542 6 202 0.0 0.0 0.00 0.00 0.00 75 1014.5
20260508090054 6 202 0.0 0.0 0.00 0.00 0.00 75 1014.4
20260508084541 6 202 0.0 0.0 0.00 0.00 0.00 76 1014.5
20260508083056 6 201 0.0 0.0 0.00 0.00 0.00 75 1014.5
20260508081552 6 202 0.0 0.0 0.00 0.00 0.00 73 1014.3
20260508080044 6 202 0.0 0.0 0.00 0.00 0.00 73 1014.3
20260508074536 6 202 0.0 0.0 0.00 0.00 0.00 72 1014.3
20260508073034 6 201 0.0 0.0 0.00 0.00 0.00 73 1014.4
20260508071533 6 201 0.0 0.0 0.00 0.00 0.00 74 1014.6
20260508070050 7 201 0.0 0.0 0.00 0.00 0.00 73 1014.7
20260508064533 7 201 0.0 0.0 0.00 0.00 0.00 74 1014.8
20260508063028 7 201 0.0 0.0 0.00 0.00 0.00 72 1014.9
20260508061526 7 202 0.0 0.0 0.00 0.00 0.00 72 1015.0
20260508060022 7 202 0.0 1.6 0.00 0.00 0.00 74 1015.1
20260508054520 6 202 0.0 1.6 0.00 0.00 0.00 81 1015.2
20260508053018 5 201 0.0 0.0 0.00 0.00 0.00 89 1015.2
20260508051515 5 202 0.0 0.0 0.00 0.00 0.00 87 1015.2
20260508050012 5 202 0.0 0.0 0.00 0.00 0.00 86 1015.1
20260508044510 6 202 0.0 0.0 0.00 0.00 0.00 85 1015.1
20260508043008 6 202 0.0 0.0 0.00 0.00 0.00 83 1015.1
20260508041507 6 201 0.0 0.0 0.00 0.00 0.00 81 1015.1
20260508040017 6 202 0.0 0.0 0.00 0.00 0.00 80 1015.1
20260508034510 6 202 0.0 0.0 0.00 0.00 0.00 76 1015.1
20260508033002 7 201 0.0 0.0 0.00 0.00 0.00 76 1015.2
20260508031504 7 202 0.0 0.0 0.00 0.00 0.00 71 1015.1
20260508030104 7 202 0.0 0.0 0.00 0.00 0.00 72 1015.1
20260508024602 7 201 0.0 0.0 0.00 0.00 0.00 68 1015.0
20260508023059 7 202 0.0 0.0 0.00 0.00 0.00 67 1015.0
20260508021559 7 202 0.0 0.0 0.00 0.00 0.00 68 1015.0
20260508020058 7 201 0.0 0.0 0.00 0.00 0.00 69 1015.0
20260508014557 7 201 0.0 0.0 0.00 0.00 0.00 65 1014.8